星链-2059 (STARLINK-2059 )

导读

STARLINK-2059是美国SpaceX公司星链(Starlink)星座中的一颗低轨通信卫星,于2021年2月16日发射升空。作为星链第一代V1.0批次卫星,它运行在近地轨道,依托相控阵天线与氪离子推进技术,为全球偏远地区提供高速宽带互联网接入,具备自主轨道维持、避碰能力,寿命末期会主动脱轨,进入大气层完全焚毁,以减少空间碎片影响,是星链全球互联星座组网的重要组成部分。

基本信息
目录编号:
47668
目录名称:
STARLINK-2059
国际标识:
2021-012BA
轨道中心:
EARTH
卫星名称:
星链-2059
卫星全名:
星链-2059 (STARLINK-2059 )
卫星状态:
已陨落 最后检测时间 2025-04-23
发射日期:
2021-02-16 UTC
国别 :
美国 (US)
星等 :
--
该卫星已列入 空间交会检测服务 Space Conjunction Data Service (SCDS) ,当前飞行风险评估等级: 无高风险
轨道信息
数据来源 国际轨道数据
星历时间: 2025-04-24T01:37:38+0800
轨道信息已过期505天
半长轴: 6524.893km
偏心率: 0.0010295
轨道倾角: 53.027°
近地点辐角 252.929°
升交点赤经 355.038°
平近点角 214.623°
近地点: 140.04km
远地点: 153.476km
周期: 87.422分钟
每日圈数: 16.471863
详细信息
固有亮度:
5
最大亮度:
2.5
卫星平台:
Starlink V1.0
覆盖范围:
全球
运营商:
太空探索技术公司
运营商所在国:
美国
制造商(研发单位):
太空探索技术公司
制造商所在国:
美国
使用方式:
暂无
卫星简介
星链(Starlink)计划是由太空探索技术公司(SpaceX)提出的一个巨型低轨卫星互联网星座项目,计划在2019年至2024年间在太空搭建由约1.2万颗卫星组成的“星链”网络,其中1584颗将部署在地球上空550千米处的近地轨道,并从2020年开始工作。该卫星仍在工作。
与全量物体交会距离演化趋势
与全量物体交会风险概率演化趋势